Home   Weather   Houston   Past weeks
Flag for USA

Past Weather in Houston, Texas, USA — Yesterday and Last 2 Weeks

Now
51 °F

Drizzle. Overcast.


Feels Like: 50 °F
Forecast: 51 / 59 °F
Wind: 5 mph from Southeast

Location: Houston Hobby Airport

Current Time: Jan 15, 2019 at 11:54:40 pm

Latest Report: Jan 15, 2019 at 10:53 pm


Visibility: 9 mi

Pressure: 30.31 "Hg

Humidity: 74%

Dew Point: 43 °F

Location of HoustonLocation

Past Weather in Houston — Graph

°F

Houston Temperature Yesterday

Maximum temperature yesterday: 54 °F (at 1:53 pm)
Minimum temperature yesterday: 39 °F (at 6:53 am)
Average temperature yesterday: 48 °F

High & Low Weather Summary for the Past Weeks

 TemperatureHumidityPressure
High77 °F (Jan 8, 2:53 pm)97% (Jan 3, 6:53 am)30.49 "Hg (Jan 3, 6:53 am)
Low37 °F (Jan 4, 5:53 am)28% (Jan 10, 1:53 pm)29.91 "Hg (Jan 12, 3:04 am)
Average55 °F73%30.17 "Hg
* Reported Dec 31 9:53 pm — Jan 15 9:53 pm, Houston. Weather by CustomWeather, © 2019

Note: Actual official high and low records may vary slightly from our data, if they occured in-between our weather recording intervals... More about our weather records

Advertising

Houston Weather History for the Previous 24 Hours

Scroll right to see more
 ConditionsComfort  
Time TempWeatherWind HumidityBarometerVisibility
9:53 pm
Tue, Jan 15
51 °FDrizzle. Overcast.6 mph71%30.32 "Hg9 mi
8:53 pm51 °FMostly cloudy.5 mph69%30.31 "Hg9 mi
7:53 pm51 °FOvercast.3 mph69%30.32 "Hg10 mi
6:53 pm52 °FOvercast.3 mph66%30.32 "Hg10 mi
5:53 pm52 °FOvercast.No wind64%30.30 "Hg9 mi
4:53 pm53 °FOvercast.3 mph64%30.29 "Hg8 mi
3:53 pm53 °FOvercast.6 mph64%30.30 "Hg8 mi
2:53 pm54 °FOvercast.No wind57%30.30 "Hg8 mi
1:53 pm53 °FOvercast.5 mph59%30.31 "Hg7 mi
12:53 pm52 °FOvercast.3 mph61%30.34 "Hg7 mi
11:53 am51 °FOvercast.3 mph63%30.40 "Hg7 mi
10:53 am48 °FOvercast.5 mph74%30.42 "Hg7 mi
9:53 am47 °FOvercast.6 mph74%30.42 "Hg7 mi
8:53 am46 °FOvercast.3 mph77%30.40 "Hg7 mi
7:53 am46 °FOvercast.7 mph77%30.37 "Hg10 mi
6:53 am45 °FOvercast.3 mph80%30.37 "Hg10 mi
5:53 am45 °FOvercast.8 mph76%30.34 "Hg10 mi
4:53 am45 °FOvercast.7 mph80%30.34 "Hg10 mi
3:53 am47 °FOvercast.8 mph71%30.36 "Hg10 mi
2:53 am47 °FOvercast.6 mph71%30.37 "Hg10 mi
1:53 am47 °FOvercast.6 mph71%30.38 "Hg10 mi
12:53 am48 °FOvercast.7 mph71%30.37 "Hg10 mi
11:53 pm
Mon, Jan 14
49 °FPassing clouds.6 mph64%30.38 "Hg10 mi
Weather by CustomWeather, © 2019

See weather overview